^^

..:: Storico WU ::..




Lo storico viene creato da WUnderground con i dati che la stazione Meteomincio invia al loro server. L' aggiornamento viene fatto ogni 5 minuti circa, tuttavia possono esserci intervalli pił ampi a causa di errori, interruzioni di servizio o problemi nell' invio tramite FTP.


Storico stazione MeteoMincio
Giorno Sommario per Ottobre 01, 2022 Unità:  Inglese    Metrico   Entrambi
Giorno Settimana Mese Anno
  Max: Min: Media:
Temperatura: 71.6 °F 55.4 °F 62.2 °F
Dew Point: 60.8 °F 51.8 °F 56.8 °F
Umidità: 96% 65% 84%
Velocità vento: 13.7mph 1.2mph 6mph
Raffica: 18.6mph - -
Direzione- - West
Pressione: 30 in 29.9 in -
Precipitazioni: 0.01 in    
 
 
Tabulato Dati per Ottobre 01, 2022
Ora Temperatura Dew Point Pressione Direzione Velocità vento Raffica Umidità Intensità pioggia (oraria) Info solare Situazione
00:00 59 °F 57.2 °F 29.9 in West 1.9 mph 5 mph 95% 0 in 0.00 W/m2 unknown
00:09 59 °F 57.2 °F 29.9 in WSW 3.7 mph 6.2 mph 95% 0 in 0.00 W/m2 unknown
00:12 59 °F 57.2 °F 29.9 in West 4.3 mph 6.2 mph 95% 0 in 0.00 W/m2 unknown
00:18 59 °F 57.2 °F 29.9 in WNW 4.3 mph 6.2 mph 95% 0 in 0.00 W/m2 unknown
00:24 59 °F 57.2 °F 29.9 in WNW 5 mph 6.2 mph 95% 0 in 0.00 W/m2 unknown
00:28 59 °F 57.2 °F 29.9 in West 5 mph 6.2 mph 95% 0 in 0.00 W/m2 unknown
00:31 59 °F 57.2 °F 29.9 in West 3.1 mph 3.7 mph 95% 0 in 0.00 W/m2 unknown
00:38 59 °F 57.2 °F 29.9 in West 3.1 mph 5 mph 95% 0 in 0.00 W/m2 unknown
00:44 59 °F 57.2 °F 29.9 in WNW 3.1 mph 4.3 mph 95% 0 in 0.00 W/m2 unknown
00:49 59 °F 57.2 °F 29.9 in West 3.1 mph 3.7 mph 95% 0 in 0.00 W/m2 unknown
00:53 59 °F 57.2 °F 29.9 in WSW 2.5 mph 5 mph 95% 0 in 0.00 W/m2 unknown
00:59 59 °F 57.2 °F 29.9 in WSW 2.5 mph 3.7 mph 95% 0 in 0.00 W/m2 unknown
01:02 59 °F 57.2 °F 29.9 in WSW 1.9 mph 3.1 mph 95% 0 in 0.00 W/m2 unknown
01:06 59 °F 57.2 °F 29.9 in WSW 1.2 mph 1.2 mph 95% 0 in 0.00 W/m2 unknown
01:14 59 °F 57.2 °F 29.9 in WNW 1.2 mph 3.1 mph 95% 0 in 0.00 W/m2 unknown
01:18 59 °F 57.2 °F 29.9 in WNW 2.5 mph 3.7 mph 95% 0 in 0.00 W/m2 unknown
01:24 59 °F 57.2 °F 29.9 in WNW 2.5 mph 3.7 mph 95% 0 in 0.00 W/m2 unknown
01:26 59 °F 57.2 °F 29.9 in WNW 2.5 mph 3.7 mph 95% 0 in 0.00 W/m2 unknown
01:33 59 °F 57.2 °F 30 in WNW 3.1 mph 5 mph 95% 0 in 0.00 W/m2 unknown
01:39 59 °F 57.2 °F 30 in WNW 4.3 mph 6.8 mph 95% 0 in 0.00 W/m2 unknown
01:43 59 °F 57.2 °F 29.9 in WNW 4.3 mph 6.8 mph 95% 0 in 0.00 W/m2 unknown
01:49 59 °F 57.2 °F 29.9 in WNW 5 mph 6.8 mph 95% 0 in 0.00 W/m2 unknown
01:53 59 °F 57.2 °F 29.9 in West 5 mph 6.8 mph 95% 0 in 0.00 W/m2 unknown
01:59 59 °F 57.2 °F 30 in WNW 4.3 mph 5 mph 95% 0 in 0.00 W/m2 unknown
02:04 59 °F 57.2 °F 30 in WNW 5 mph 6.2 mph 95% 0 in 0.00 W/m2 unknown
02:08 59 °F 57.2 °F 29.9 in West 5 mph 6.2 mph 95% 0 in 0.00 W/m2 unknown
02:13 59 °F 57.2 °F 30 in WNW 5 mph 6.2 mph 95% 0 in 0.00 W/m2 unknown
02:18 59 °F 57.2 °F 30 in WNW 5 mph 6.2 mph 95% 0 in 0.00 W/m2 unknown
02:23 59 °F 57.2 °F 29.9 in West 3.1 mph 5 mph 95% 0 in 0.00 W/m2 unknown
02:29 59 °F 57.2 °F 29.9 in West 3.1 mph 3.7 mph 95% 0 in 0.00 W/m2 unknown
02:34 59 °F 57.2 °F 29.9 in West 3.1 mph 3.7 mph 95% 0 in 0.00 W/m2 unknown
02:39 59 °F 57.2 °F 30 in West 3.1 mph 3.7 mph 95% 0 in 0.00 W/m2 unknown
02:42 59 °F 57.2 °F 30 in West 2.5 mph 3.7 mph 95% 0 in 0.00 W/m2 unknown
02:49 59 °F 57.2 °F 30 in West 2.5 mph 3.7 mph 95% 0 in 0.00 W/m2 unknown
02:54 59 °F 57.2 °F 30 in WNW 2.5 mph 3.7 mph 95% 0 in 0.00 W/m2 unknown
02:59 59 °F 57.2 °F 30 in WNW 5 mph 6.8 mph 95% 0 in 0.00 W/m2 unknown
03:04 59 °F 57.2 °F 30 in WNW 5.6 mph 6.8 mph 95% 0 in 0.00 W/m2 unknown
03:09 59 °F 57.2 °F 30 in West 5.6 mph 6.8 mph 95% 0 in 0.00 W/m2 unknown
03:12 59 °F 57.2 °F 30 in West 5 mph 6.8 mph 95% 0 in 0.00 W/m2 unknown
03:19 59 °F 57.2 °F 30 in West 3.1 mph 3.7 mph 95% 0 in 0.00 W/m2 unknown
03:23 59 °F 57.2 °F 30 in West 2.5 mph 6.2 mph 95% 0 in 0.00 W/m2 unknown
03:28 59 °F 57.2 °F 30 in West 3.1 mph 6.2 mph 95% 0 in 0.00 W/m2 unknown
03:33 59 °F 57.2 °F 30 in West 4.3 mph 6.8 mph 95% 0 in 0.00 W/m2 unknown
03:38 59 °F 57.2 °F 30 in WNW 4.3 mph 8.7 mph 95% 0 in 0.00 W/m2 unknown
03:43 59 °F 57.2 °F 30 in WNW 4.3 mph 6.8 mph 95% 0 in 0.00 W/m2 unknown
03:48 59 °F 57.2 °F 30 in West 3.1 mph 6.8 mph 95% 0 in 0.00 W/m2 unknown
03:54 59 °F 57.2 °F 30 in West 3.1 mph 5 mph 95% 0 in 0.00 W/m2 unknown
03:58 59 °F 57.2 °F 30 in West 3.1 mph 5 mph 94% 0 in 0.00 W/m2 unknown
04:04 59 °F 57.2 °F 30 in West 3.7 mph 5 mph 94% 0 in 0.00 W/m2 unknown
04:08 59 °F 57.2 °F 30 in West 3.7 mph 5 mph 94% 0 in 0.00 W/m2 unknown
04:14 59 °F 57.2 °F 30 in West 4.3 mph 6.2 mph 94% 0 in 0.00 W/m2 unknown
04:15 57.2 °F 57.2 °F 30 in West 5 mph 6.2 mph 94% 0 in 0.00 W/m2 unknown
04:24 57.2 °F 57.2 °F 30 in West 4.3 mph 5.6 mph 94% 0 in 0.00 W/m2 unknown
04:26 57.2 °F 55.4 °F 30 in West 3.1 mph 6.2 mph 94% 0 in 0.00 W/m2 unknown
04:34 57.2 °F 55.4 °F 30 in West 4.3 mph 6.2 mph 94% 0 in 0.00 W/m2 unknown
04:38 57.2 °F 55.4 °F 30 in WSW 4.3 mph 6.2 mph 94% 0 in 0.00 W/m2 unknown
04:44 57.2 °F 55.4 °F 30 in WSW 3.7 mph 4.3 mph 94% 0 in 0.00 W/m2 unknown
04:45 57.2 °F 55.4 °F 30 in WSW 2.5 mph 5 mph 94% 0 in 0.00 W/m2 unknown
04:54 57.2 °F 55.4 °F 30 in WSW 3.1 mph 3.7 mph 94% 0 in 0.00 W/m2 unknown
04:55 55.4 °F 53.6 °F 30 in WSW 2.5 mph 3.7 mph 94% 0 in 0.00 W/m2 unknown
05:04 55.4 °F 53.6 °F 30 in SW 3.1 mph 3.7 mph 94% 0 in 0.00 W/m2 unknown
05:08 55.4 °F 53.6 °F 30 in WSW 3.1 mph 5 mph 94% 0 in 0.00 W/m2 unknown
05:14 55.4 °F 53.6 °F 30 in SW 3.7 mph 5 mph 94% 0 in 0.00 W/m2 unknown
05:18 55.4 °F 53.6 °F 30 in SW 3.7 mph 5 mph 95% 0 in 0.00 W/m2 unknown
05:23 55.4 °F 53.6 °F 30 in SW 4.3 mph 5 mph 95% 0 in 0.00 W/m2 unknown
05:28 55.4 °F 53.6 °F 30 in SW 4.3 mph 5 mph 95% 0 in 0.00 W/m2 unknown
05:34 55.4 °F 53.6 °F 30 in SW 5 mph 5 mph 95% 0 in 0.00 W/m2 unknown
05:36 55.4 °F 53.6 °F 30 in SW 3.1 mph 5 mph 95% 0 in 0.00 W/m2 unknown
05:44 55.4 °F 53.6 °F 30 in SSW 3.7 mph 6.8 mph 95% 0 in 0.00 W/m2 unknown
05:47 55.4 °F 53.6 °F 30 in SW 3.7 mph 6.8 mph 95% 0 in 0.00 W/m2 unknown
05:54 55.4 °F 53.6 °F 30 in SW 4.3 mph 6.8 mph 95% 0 in 0.00 W/m2 unknown
05:56 55.4 °F 53.6 °F 30 in SW 5 mph 6.8 mph 95% 0 in 0.00 W/m2 unknown
06:04 55.4 °F 53.6 °F 30 in WSW 5 mph 6.2 mph 95% 0.01 in 0.00 W/m2 unknown
06:08 55.4 °F 53.6 °F 30 in WSW 3.7 mph 6.2 mph 95% 0.01 in 0.00 W/m2 unknown
06:14 55.4 °F 53.6 °F 30 in WSW 4.3 mph 8.1 mph 95% 0.01 in 0.00 W/m2 unknown
06:18 55.4 °F 53.6 °F 30 in West 3.7 mph 8.1 mph 95% 0.01 in 0.00 W/m2 unknown
06:23 55.4 °F 53.6 °F 30 in West 3.7 mph 6.2 mph 96% 0.01 in 0.00 W/m2 unknown
06:28 55.4 °F 53.6 °F 30 in WSW 5.6 mph 6.2 mph 96% 0.01 in 0.00 W/m2 unknown
06:34 55.4 °F 53.6 °F 30 in West 5.6 mph 6.2 mph 95% 0.01 in 0.00 W/m2 unknown
06:38 55.4 °F 53.6 °F 30 in West 5 mph 6.2 mph 95% 0.01 in 0.00 W/m2 unknown
06:41 55.4 °F 53.6 °F 30 in WSW 5 mph 6.2 mph 96% 0.01 in 0.00 W/m2 unknown
06:48 55.4 °F 53.6 °F 30 in WSW 3.7 mph 4.3 mph 96% 0.01 in 0.00 W/m2 unknown
06:53 55.4 °F 53.6 °F 30 in WSW 3.7 mph 6.2 mph 96% 0.01 in 0.00 W/m2 unknown
06:59 55.4 °F 53.6 °F 30 in WSW 4.3 mph 6.8 mph 96% 0.01 in 0.00 W/m2 unknown
07:04 55.4 °F 53.6 °F 30 in West 5 mph 6.8 mph 96% 0.01 in 0.00 W/m2 unknown
07:09 55.4 °F 53.6 °F 30 in West 5.6 mph 8.1 mph 96% 0.01 in 0.00 W/m2 unknown
07:13 55.4 °F 53.6 °F 30 in WSW 5.6 mph 8.1 mph 96% 0.01 in 0.00 W/m2 unknown
07:18 55.4 °F 53.6 °F 30 in West 6.2 mph 8.1 mph 96% 0.01 in 0.00 W/m2 unknown
07:22 55.4 °F 53.6 °F 30 in WSW 5 mph 8.1 mph 96% 0.01 in 0.00 W/m2 unknown
07:29 55.4 °F 53.6 °F 30 in WSW 5.6 mph 8.1 mph 96% 0.01 in 7.00 W/m2 unknown
07:32 55.4 °F 53.6 °F 30 in West 5.6 mph 8.1 mph 96% 0.01 in 7.00 W/m2 unknown
07:39 55.4 °F 53.6 °F 30 in WSW 6.2 mph 8.1 mph 96% 0.01 in 12.00 W/m2 unknown
07:42 55.4 °F 53.6 °F 30 in WSW 5 mph 8.1 mph 96% 0.01 in 12.00 W/m2 unknown
07:48 55.4 °F 53.6 °F 30 in WSW 4.3 mph 6.8 mph 96% 0.01 in 21.00 W/m2 unknown
07:50 55.4 °F 53.6 °F 30 in WSW 5 mph 8.7 mph 96% 0.01 in 21.00 W/m2 unknown
07:57 55.4 °F 53.6 °F 30 in West 5 mph 8.1 mph 96% 0.01 in 35.00 W/m2 unknown
08:04 55.4 °F 53.6 °F 30 in West 5 mph 6.8 mph 96% 0 in 51.00 W/m2 unknown
08:09 55.4 °F 53.6 °F 30 in West 5 mph 8.7 mph 96% 0 in 72.00 W/m2 unknown
08:14 55.4 °F 53.6 °F 30 in WSW 5.6 mph 8.1 mph 96% 0 in 77.00 W/m2 unknown
08:19 55.4 °F 53.6 °F 30 in WSW 9.3 mph 13 mph 96% 0 in 97.00 W/m2 unknown
08:24 55.4 °F 53.6 °F 30 in West 8.1 mph 13 mph 96% 0 in 60.00 W/m2 unknown
08:28 55.4 °F 53.6 °F 30 in West 8.1 mph 8.1 mph 96% 0 in 60.00 W/m2 unknown
08:34 55.4 °F 53.6 °F 30 in WSW 5.6 mph 8.1 mph 96% 0 in 130.00 W/m2 unknown
08:38 55.4 °F 53.6 °F 30 in West 6.2 mph 8.1 mph 96% 0 in 160.00 W/m2 unknown
08:43 55.4 °F 55.4 °F 30 in West 6.2 mph 8.1 mph 96% 0 in 160.00 W/m2 unknown
08:48 55.4 °F 55.4 °F 30 in West 6.8 mph 8.1 mph 96% 0 in 160.00 W/m2 unknown
08:54 55.4 °F 55.4 °F 30 in West 6.8 mph 8.7 mph 96% 0 in 125.00 W/m2 unknown
08:59 57.2 °F 55.4 °F 30 in West 9.3 mph 13 mph 96% 0 in 137.00 W/m2 unknown
09:04 57.2 °F 55.4 °F 30 in WNW 9.3 mph 13 mph 96% 0 in 155.00 W/m2 unknown
09:09 57.2 °F 55.4 °F 30 in WSW 8.7 mph 13 mph 96% 0 in 232.00 W/m2 unknown
09:12 57.2 °F 55.4 °F 30 in WNW 8.1 mph 13 mph 96% 0 in 232.00 W/m2 unknown
09:19 57.2 °F 55.4 °F 30 in WNW 8.7 mph 11.8 mph 96% 0 in 221.00 W/m2 unknown
09:24 57.2 °F 55.4 °F 30 in West 8.7 mph 11.8 mph 95% 0 in 225.00 W/m2 unknown
09:29 57.2 °F 57.2 °F 30 in West 8.7 mph 11.8 mph 95% 0 in 295.00 W/m2 unknown
09:33 59 °F 57.2 °F 30 in WNW 7.5 mph 11.8 mph 95% 0 in 295.00 W/m2 unknown
09:38 59 °F 57.2 °F 30 in West 7.5 mph 11.8 mph 94% 0 in 373.00 W/m2 unknown
09:43 59 °F 57.2 °F 30 in WSW 7.5 mph 9.3 mph 94% 0 in 401.00 W/m2 unknown
09:48 59 °F 57.2 °F 30 in West 7.5 mph 10.6 mph 94% 0 in 383.00 W/m2 unknown
09:54 60.8 °F 57.2 °F 30 in WSW 7.5 mph 10.6 mph 94% 0 in 403.00 W/m2 unknown
09:58 60.8 °F 57.2 °F 30 in WSW 8.1 mph 13 mph 91% 0 in 406.00 W/m2 unknown
10:02 60.8 °F 57.2 °F 30 in West 8.1 mph 13 mph 91% 0 in 406.00 W/m2 unknown
10:09 60.8 °F 57.2 °F 30 in West 8.1 mph 12.4 mph 90% 0 in 406.00 W/m2 unknown
10:14 60.8 °F 57.2 °F 30 in West 6.2 mph 11.8 mph 90% 0 in 403.00 W/m2 unknown
10:16 60.8 °F 57.2 °F 30 in West 6.2 mph 13 mph 89% 0 in 397.00 W/m2 unknown
10:21 60.8 °F 57.2 °F 30 in West 6.2 mph 11.8 mph 89% 0 in 397.00 W/m2 unknown
10:29 62.6 °F 59 °F 30 in West 8.1 mph 11.8 mph 89% 0 in 410.00 W/m2 unknown
10:34 62.6 °F 59 °F 30 in West 8.1 mph 11.8 mph 88% 0 in 410.00 W/m2 unknown
10:39 62.6 °F 59 °F 30 in West 8.1 mph 9.9 mph 88% 0 in 404.00 W/m2 unknown
10:42 62.6 °F 59 °F 30 in West 6.8 mph 9.9 mph 87% 0 in 480.00 W/m2 unknown
10:46 62.6 °F 59 °F 30 in WNW 6.8 mph 10.6 mph 87% 0 in 480.00 W/m2 unknown
10:51 62.6 °F 59 °F 30 in WNW 7.5 mph 11.8 mph 86% 0 in 480.00 W/m2 unknown
10:59 62.6 °F 59 °F 30 in West 8.7 mph 14.3 mph 86% 0 in 403.00 W/m2 unknown
11:04 62.6 °F 57.2 °F 30 in WNW 9.3 mph 14.3 mph 85% 0 in 316.00 W/m2 unknown
11:09 62.6 °F 57.2 °F 30 in WNW 9.9 mph 13 mph 85% 0 in 316.00 W/m2 unknown
11:12 62.6 °F 57.2 °F 30 in West 8.7 mph 12.4 mph 85% 0 in 290.00 W/m2 unknown
11:17 62.6 °F 57.2 °F 30 in WNW 8.7 mph 13 mph 85% 0 in 290.00 W/m2 unknown
11:24 62.6 °F 57.2 °F 30 in WNW 8.7 mph 13 mph 85% 0 in 290.00 W/m2 unknown
11:25 62.6 °F 57.2 °F 30 in WNW 8.1 mph 11.2 mph 85% 0 in 322.00 W/m2 unknown
11:34 62.6 °F 57.2 °F 30 in West 8.7 mph 11.8 mph 84% 0 in 473.00 W/m2 unknown
11:39 62.6 °F 57.2 °F 30 in West 8.7 mph 11.8 mph 83% 0 in 473.00 W/m2 unknown
11:43 62.6 °F 57.2 °F 30 in West 8.7 mph 11.8 mph 83% 0 in 462.00 W/m2 unknown
11:46 62.6 °F 59 °F 30 in NW 9.3 mph 13 mph 83% 0 in 302.00 W/m2 unknown
11:53 64.4 °F 59 °F 30 in WNW 9.3 mph 13 mph 83% 0 in 352.00 W/m2 unknown
11:58 64.4 °F 59 °F 30 in WNW 8.7 mph 13 mph 82% 0 in 392.00 W/m2 unknown
12:04 64.4 °F 59 °F 30 in WNW 8.7 mph 13 mph 83% 0 in 392.00 W/m2 unknown
12:06 64.4 °F 59 °F 30 in West 8.1 mph 13 mph 83% 0 in 306.00 W/m2 unknown
12:11 64.4 °F 59 °F 30 in West 7.5 mph 9.3 mph 83% 0 in 306.00 W/m2 unknown
12:18 64.4 °F 59 °F 30 in West 8.1 mph 10.6 mph 83% 0 in 529.00 W/m2 unknown
12:24 64.4 °F 59 °F 30 in WNW 8.1 mph 11.8 mph 82% 0 in 584.00 W/m2 unknown
12:27 64.4 °F 59 °F 30 in WNW 8.7 mph 11.8 mph 82% 0 in 487.00 W/m2 unknown
12:32 64.4 °F 59 °F 30 in WNW 8.7 mph 11.8 mph 79% 0 in 501.00 W/m2 unknown
12:38 66.2 °F 59 °F 30 in WNW 8.1 mph 13 mph 79% 0 in 512.00 W/m2 unknown
12:42 66.2 °F 59 °F 30 in West 8.1 mph 13 mph 79% 0 in 512.00 W/m2 unknown
12:49 66.2 °F 59 °F 30 in WNW 8.7 mph 12.4 mph 78% 0 in 478.00 W/m2 unknown
12:52 66.2 °F 59 °F 30 in West 8.1 mph 13 mph 78% 0 in 466.00 W/m2 unknown
12:59 66.2 °F 59 °F 30 in West 8.7 mph 11.8 mph 78% 0 in 568.00 W/m2 unknown
13:04 66.2 °F 59 °F 30 in West 8.1 mph 13 mph 77% 0 in 603.00 W/m2 unknown
13:09 66.2 °F 59 °F 30 in WNW 8.1 mph 13 mph 77% 0 in 603.00 W/m2 unknown
13:13 66.2 °F 59 °F 30 in West 8.1 mph 11.8 mph 75% 0 in 589.00 W/m2 unknown
13:18 68 °F 59 °F 30 in WNW 8.1 mph 9.3 mph 75% 0 in 707.00 W/m2 unknown
13:24 68 °F 60.8 °F 30 in WNW 8.7 mph 11.8 mph 76% 0 in 707.00 W/m2 unknown
13:29 68 °F 59 °F 30 in WNW 8.7 mph 11.8 mph 75% 0 in 691.00 W/m2 unknown
13:34 68 °F 59 °F 30 in West 10.6 mph 13 mph 75% 0 in 691.00 W/m2 unknown
13:39 68 °F 59 °F 30 in West 11.2 mph 14.3 mph 74% 0 in 571.00 W/m2 unknown
13:42 68 °F 59 °F 30 in West 11.2 mph 14.3 mph 73% 0 in 566.00 W/m2 unknown
13:49 68 °F 59 °F 30 in West 11.2 mph 13.7 mph 72% 0 in 596.00 W/m2 unknown
13:52 68 °F 59 °F 30 in WSW 10.6 mph 14.3 mph 72% 0 in 610.00 W/m2 unknown
13:56 68 °F 59 °F 30 in WSW 9.9 mph 11.8 mph 72% 0 in 610.00 W/m2 unknown
14:03 69.8 °F 59 °F 30 in WNW 9.9 mph 11.8 mph 71% 0 in 610.00 W/m2 unknown
14:08 68 °F 59 °F 30 in WNW 6.2 mph 11.8 mph 71% 0 in 545.00 W/m2 unknown
14:13 68 °F 59 °F 30 in WNW 6.2 mph 11.8 mph 71% 0 in 545.00 W/m2 unknown
14:18 69.8 °F 59 °F 30 in West 6.8 mph 11.8 mph 71% 0 in 610.00 W/m2 unknown
14:24 69.8 °F 59 °F 30 in West 9.3 mph 14.3 mph 71% 0 in 635.00 W/m2 unknown
14:28 69.8 °F 59 °F 30 in WNW 9.9 mph 14.3 mph 69% 0 in 635.00 W/m2 unknown
14:34 69.8 °F 59 °F 30 in WNW 8.7 mph 14.3 mph 70% 0 in 554.00 W/m2 unknown
14:36 69.8 °F 59 °F 30 in WNW 8.7 mph 13 mph 70% 0 in 420.00 W/m2 unknown
14:44 69.8 °F 59 °F 30 in WNW 9.9 mph 13 mph 70% 0 in 527.00 W/m2 unknown
14:49 69.8 °F 59 °F 30 in West 9.3 mph 13 mph 69% 0 in 554.00 W/m2 unknown
14:51 69.8 °F 59 °F 30 in West 8.7 mph 14.3 mph 70% 0 in 587.00 W/m2 unknown
14:58 69.8 °F 59 °F 30 in WNW 11.2 mph 14.3 mph 69% 0 in 587.00 W/m2 unknown
15:04 69.8 °F 59 °F 30 in WNW 13.7 mph 18.6 mph 68% 0 in 568.00 W/m2 unknown
15:08 69.8 °F 59 °F 30 in WNW 12.4 mph 18.6 mph 68% 0 in 566.00 W/m2 unknown
15:14 69.8 °F 59 °F 30 in WNW 13 mph 18.6 mph 68% 0 in 566.00 W/m2 unknown
15:16 69.8 °F 59 °F 30 in West 11.2 mph 18.6 mph 68% 0 in 526.00 W/m2 unknown
15:21 69.8 °F 59 °F 30 in West 9.3 mph 13 mph 68% 0 in 533.00 W/m2 unknown
15:29 69.8 °F 59 °F 30 in WNW 9.9 mph 12.4 mph 68% 0 in 533.00 W/m2 unknown
15:34 69.8 °F 59 °F 30 in West 8.1 mph 18 mph 67% 0 in 517.00 W/m2 unknown
15:37 69.8 °F 59 °F 30 in WNW 8.1 mph 11.8 mph 67% 0 in 506.00 W/m2 unknown
15:44 69.8 °F 59 °F 30 in WNW 8.7 mph 11.8 mph 68% 0 in 506.00 W/m2 unknown
15:49 69.8 °F 59 °F 30 in WNW 8.1 mph 11.8 mph 67% 0 in 490.00 W/m2 unknown
15:53 69.8 °F 59 °F 30 in West 7.5 mph 11.8 mph 67% 0 in 469.00 W/m2 unknown
15:57 69.8 °F 59 °F 30 in WNW 8.1 mph 11.8 mph 67% 0 in 457.00 W/m2 unknown
16:04 71.6 °F 59 °F 30 in West 7.5 mph 11.8 mph 67% 0 in 446.00 W/m2 unknown
16:08 69.8 °F 59 °F 30 in WNW 6.8 mph 11.8 mph 66% 0 in 439.00 W/m2 unknown
16:13 71.6 °F 59 °F 30 in WNW 6.8 mph 11.8 mph 66% 0 in 439.00 W/m2 unknown
16:19 71.6 °F 59 °F 30 in West 8.1 mph 11.8 mph 66% 0 in 439.00 W/m2 unknown
16:24 71.6 °F 59 °F 30 in West 8.1 mph 11.8 mph 66% 0 in 410.00 W/m2 unknown
16:29 71.6 °F 59 °F 30 in West 8.1 mph 11.8 mph 66% 0 in 399.00 W/m2 unknown
16:33 71.6 °F 59 °F 30 in WNW 8.1 mph 10.6 mph 66% 0 in 371.00 W/m2 unknown
16:39 71.6 °F 59 °F 30 in WNW 8.1 mph 10.6 mph 66% 0 in 371.00 W/m2 unknown
16:43 71.6 °F 59 °F 30 in WNW 8.1 mph 10.6 mph 66% 0 in 371.00 W/m2 unknown
16:49 71.6 °F 59 °F 30 in WNW 8.1 mph 10.6 mph 66% 0 in 371.00 W/m2 unknown
16:54 71.6 °F 59 °F 30 in West 8.1 mph 9.3 mph 65% 0 in 330.00 W/m2 unknown
16:57 71.6 °F 59 °F 30 in West 8.1 mph 9.3 mph 65% 0 in 316.00 W/m2 unknown
17:04 71.6 °F 59 °F 30 in WNW 8.1 mph 14.3 mph 65% 0 in 299.00 W/m2 unknown
17:09 71.6 °F 59 °F 29.9 in WNW 8.1 mph 14.3 mph 65% 0 in 287.00 W/m2 unknown
17:12 71.6 °F 59 °F 29.9 in West 8.1 mph 14.3 mph 65% 0 in 274.00 W/m2 unknown
17:19 71.6 °F 59 °F 29.9 in West 8.1 mph 14.3 mph 65% 0 in 258.00 W/m2 unknown
17:23 71.6 °F 59 °F 29.9 in WSW 8.1 mph 14.3 mph 65% 0 in 248.00 W/m2 unknown
17:28 69.8 °F 59 °F 29.9 in West 6.8 mph 11.8 mph 65% 0 in 232.00 W/m2 unknown
17:32 69.8 °F 59 °F 29.9 in West 7.5 mph 11.8 mph 65% 0 in 218.00 W/m2 unknown
17:39 69.8 °F 59 °F 29.9 in WNW 7.5 mph 11.8 mph 65% 0 in 206.00 W/m2 unknown
17:44 69.8 °F 59 °F 30 in WNW 6.8 mph 11.8 mph 65% 0 in 185.00 W/m2 unknown
17:49 69.8 °F 57.2 °F 29.9 in WNW 6.8 mph 11.8 mph 65% 0 in 165.00 W/m2 unknown
17:53 69.8 °F 59 °F 29.9 in West 6.8 mph 11.8 mph 66% 0 in 165.00 W/m2 unknown
17:56 69.8 °F 59 °F 29.9 in West 6.8 mph 11.8 mph 66% 0 in 130.00 W/m2 unknown
18:04 69.8 °F 59 °F 29.9 in West 6.8 mph 11.8 mph 66% 0 in 130.00 W/m2 unknown
18:09 69.8 °F 59 °F 29.9 in West 7.5 mph 11.8 mph 67% 0 in 130.00 W/m2 unknown
18:12 69.8 °F 57.2 °F 29.9 in WSW 7.5 mph 11.8 mph 67% 0 in 83.00 W/m2 unknown
18:18 69.8 °F 59 °F 29.9 in West 7.5 mph 11.8 mph 68% 0 in 74.00 W/m2 unknown
18:24 69.8 °F 57.2 °F 29.9 in West 6.8 mph 11.8 mph 69% 0 in 58.00 W/m2 unknown
18:27 69.8 °F 57.2 °F 29.9 in West 6.8 mph 10.6 mph 69% 0 in 23.00 W/m2 unknown
18:34 68 °F 57.2 °F 29.9 in West 6.8 mph 10.6 mph 71% 0 in 19.00 W/m2 unknown
18:39 68 °F 57.2 °F 29.9 in WSW 6.8 mph 10.6 mph 71% 0 in 16.00 W/m2 unknown
18:41 68 °F 57.2 °F 29.9 in SW 6.2 mph 9.9 mph 71% 0 in 12.00 W/m2 unknown
18:47 68 °F 57.2 °F 29.9 in SW 4.3 mph 6.8 mph 71% 0 in 12.00 W/m2 unknown
18:54 66.2 °F 57.2 °F 30 in WSW 4.3 mph 6.8 mph 74% 0 in 9.00 W/m2 unknown
18:59 66.2 °F 57.2 °F 30 in WSW 5 mph 6.8 mph 74% 0 in 5.00 W/m2 unknown
19:04 66.2 °F 57.2 °F 30 in WSW 5 mph 6.8 mph 74% 0 in 0.00 W/m2 unknown
19:08 66.2 °F 57.2 °F 30 in WSW 5 mph 5 mph 74% 0 in 0.00 W/m2 unknown
19:13 66.2 °F 57.2 °F 30 in WSW 5 mph 5 mph 76% 0 in 0.00 W/m2 unknown
19:18 66.2 °F 57.2 °F 30 in WSW 3.1 mph 5 mph 77% 0 in 0.00 W/m2 unknown
19:24 64.4 °F 57.2 °F 30 in WSW 3.1 mph 5 mph 77% 0 in 0.00 W/m2 unknown
19:29 64.4 °F 57.2 °F 30 in WSW 1.9 mph 3.7 mph 78% 0 in 0.00 W/m2 unknown
19:34 64.4 °F 57.2 °F 30 in WSW 1.9 mph 3.7 mph 78% 0 in 0.00 W/m2 unknown
19:37 64.4 °F 57.2 °F 30 in WSW 1.9 mph 3.7 mph 78% 0 in 0.00 W/m2 unknown
19:44 64.4 °F 57.2 °F 30 in West 3.1 mph 6.2 mph 79% 0 in 0.00 W/m2 unknown
19:48 64.4 °F 57.2 °F 30 in WSW 3.1 mph 6.2 mph 79% 0 in 0.00 W/m2 unknown
19:54 64.4 °F 57.2 °F 30 in WSW 3.1 mph 6.2 mph 79% 0 in 0.00 W/m2 unknown
19:58 64.4 °F 57.2 °F 30 in WSW 3.1 mph 6.2 mph 79% 0 in 0.00 W/m2 unknown
20:04 62.6 °F 57.2 °F 30 in WSW 1.9 mph 3.7 mph 79% 0 in 0.00 W/m2 unknown
20:09 62.6 °F 57.2 °F 30 in West 3.1 mph 3.7 mph 80% 0 in 0.00 W/m2 unknown
20:13 62.6 °F 57.2 °F 30 in West 3.1 mph 3.7 mph 80% 0 in 0.00 W/m2 unknown
20:17 62.6 °F 57.2 °F 30 in WSW 3.1 mph 3.7 mph 80% 0 in 0.00 W/m2 unknown
20:23 62.6 °F 57.2 °F 30 in SW 3.1 mph 3.7 mph 80% 0 in 0.00 W/m2 unknown
20:27 62.6 °F 57.2 °F 30 in WSW 3.1 mph 3.7 mph 80% 0 in 0.00 W/m2 unknown
20:34 62.6 °F 57.2 °F 30 in WSW 3.1 mph 3.7 mph 80% 0 in 0.00 W/m2 unknown
20:39 62.6 °F 57.2 °F 30 in WSW 2.5 mph 3.7 mph 81% 0 in 0.00 W/m2 unknown
20:43 62.6 °F 57.2 °F 30 in SW 2.5 mph 3.7 mph 81% 0 in 0.00 W/m2 unknown
20:48 62.6 °F 57.2 °F 30 in SW 2.5 mph 3.7 mph 81% 0 in 0.00 W/m2 unknown
20:53 62.6 °F 57.2 °F 30 in SW 2.5 mph 3.7 mph 81% 0 in 0.00 W/m2 unknown
20:59 62.6 °F 57.2 °F 30 in SW 2.5 mph 3.7 mph 81% 0 in 0.00 W/m2 unknown
21:03 62.6 °F 57.2 °F 30 in SW 3.1 mph 8.1 mph 81% 0 in 0.00 W/m2 unknown
21:08 62.6 °F 57.2 °F 30 in SSW 4.3 mph 8.1 mph 81% 0 in 0.00 W/m2 unknown
21:14 64.4 °F 57.2 °F 30 in SW 5 mph 8.1 mph 81% 0 in 0.00 W/m2 unknown
21:17 64.4 °F 57.2 °F 30 in SW 5.6 mph 8.1 mph 81% 0 in 0.00 W/m2 unknown
21:23 64.4 °F 57.2 °F 30 in SW 5 mph 6.8 mph 81% 0 in 0.00 W/m2 unknown
21:28 64.4 °F 57.2 °F 30 in SW 5 mph 6.8 mph 80% 0 in 0.00 W/m2 unknown
21:32 62.6 °F 57.2 °F 30 in SW 5 mph 6.8 mph 80% 0 in 0.00 W/m2 unknown
21:37 62.6 °F 57.2 °F 30 in SW 5 mph 6.8 mph 80% 0 in 0.00 W/m2 unknown
21:42 62.6 °F 57.2 °F 30 in SW 5 mph 6.2 mph 80% 0 in 0.00 W/m2 unknown
21:49 62.6 °F 57.2 °F 30 in WSW 5 mph 8.1 mph 80% 0 in 0.00 W/m2 unknown
21:53 62.6 °F 57.2 °F 30 in WSW 5 mph 8.1 mph 80% 0 in 0.00 W/m2 unknown
21:59 62.6 °F 57.2 °F 30 in WSW 5 mph 8.1 mph 80% 0 in 0.00 W/m2 unknown
22:00 62.6 °F 55.4 °F 30 in WSW 5 mph 8.1 mph 79% 0 in 0.00 W/m2 unknown
22:07 62.6 °F 55.4 °F 30 in SW 5.6 mph 8.1 mph 79% 0 in 0.00 W/m2 unknown
22:14 62.6 °F 55.4 °F 30 in SW 5.6 mph 8.1 mph 79% 0 in 0.00 W/m2 unknown
22:19 62.6 °F 55.4 °F 30 in SW 5.6 mph 8.1 mph 79% 0 in 0.00 W/m2 unknown
22:22 62.6 °F 55.4 °F 30 in SW 6.2 mph 8.1 mph 78% 0 in 0.00 W/m2 unknown
22:29 62.6 °F 55.4 °F 30 in WSW 6.2 mph 9.9 mph 78% 0 in 0.00 W/m2 unknown
22:32 62.6 °F 55.4 °F 30 in WSW 5.6 mph 9.9 mph 78% 0 in 0.00 W/m2 unknown
22:39 60.8 °F 55.4 °F 30 in WSW 5.6 mph 9.3 mph 78% 0 in 0.00 W/m2 unknown
22:43 60.8 °F 55.4 °F 30 in SW 5.6 mph 9.3 mph 78% 0 in 0.00 W/m2 unknown
22:48 60.8 °F 53.6 °F 30 in SW 6.2 mph 9.3 mph 77% 0 in 0.00 W/m2 unknown
22:54 60.8 °F 53.6 °F 30 in SW 6.8 mph 9.3 mph 77% 0 in 0.00 W/m2 unknown
22:57 60.8 °F 53.6 °F 30 in SW 6.8 mph 9.3 mph 77% 0 in 0.00 W/m2 unknown
23:03 60.8 °F 53.6 °F 30 in SW 6.2 mph 8.7 mph 77% 0 in 0.00 W/m2 unknown
23:09 60.8 °F 53.6 °F 30 in WSW 6.2 mph 8.1 mph 77% 0 in 0.00 W/m2 unknown
23:11 60.8 °F 53.6 °F 30 in WSW 6.2 mph 8.1 mph 77% 0 in 0.00 W/m2 unknown
23:19 60.8 °F 53.6 °F 30 in WSW 6.2 mph 10.6 mph 78% 0 in 0.00 W/m2 unknown
23:22 60.8 °F 53.6 °F 30 in SW 6.2 mph 10.6 mph 78% 0 in 0.00 W/m2 unknown
23:29 60.8 °F 53.6 °F 30 in SW 6.8 mph 10.6 mph 78% 0 in 0.00 W/m2 unknown
23:33 60.8 °F 53.6 °F 30 in WSW 6.8 mph 10.6 mph 77% 0 in 0.00 W/m2 unknown
23:37 60.8 °F 53.6 °F 30 in WSW 6.8 mph 10.6 mph 77% 0 in 0.00 W/m2 unknown
23:42 60.8 °F 53.6 °F 30 in WSW 6.8 mph 10.6 mph 77% 0 in 0.00 W/m2 unknown
23:49 60.8 °F 53.6 °F 30 in WSW 6.2 mph 10.6 mph 78% 0 in 0.00 W/m2 unknown
23:53 60.8 °F 53.6 °F 30 in WSW 6.2 mph 10.6 mph 78% 0 in 0.00 W/m2 unknown
23:58 59 °F 51.8 °F 30 in WSW 6.2 mph 9.9 mph 79% 0 in 0.00 W/m2 unknown
Stazione Meteorologica MeteoMincio Rivalta s/M (MN)
Con i complimenti di Weather Underground - 4 mb



METEO PILLOLE
Il più grande ciclone tropicale
Pacifico occidentale
Al culmine della sua potenza, il 12 ottobre 1979, il tifone Tip imperversa su un raggio di circa 1100 km. La pressione di 870 mb registrata nell'occhio di questo ciclone è la più bassa mai rilevata sulla Terra al livello del mare.
Share

Non seguire questo link o sarai bannato dal sito!